Regional Weather Roundup
Issued by NWS Lake Charles, LA

Home | Current Version | Previous Version | Text Only | Print | Product List | Glossary On
Versions: 1 2 3 4 5 6 7 8 9 10 11 12 13 14 15 16 17 18 19 20 21 22 23 24 25 26 27 28 29 30 31 32 33 34 35 36 37 38 39 40 41 42 43 44 45 46 47
000
ASUS44 KLCH 040710
RWRLCH
RWRLCH
REGIONAL WEATHER ROUNDUP
NATIONAL WEATHER SERVICE LAKE CHARLES LA
200 AM CDT MON MAY 04 2015

Note: "fair" indicates few or no clouds below 12,000 feet with no
significant weather and/or obstructions to visibility.


ACROSS SOUTHEAST TEXAS

CITY           SKY/WX    TMP DP  RH WIND       PRES   REMARKS
BEAUMONT       CLEAR     65  60  84 S7        30.05S
BEAUMONT CITY    N/A     63  61  93 CALM      30.06S
ORANGE         SUNNY     65  60  85 S3        30.07F
JASPER         NOT AVBL
$$

ACROSS CENTRAL LOUISIANA

CITY           SKY/WX    TMP DP  RH WIND       PRES   REMARKS
LEESVILLE      CLEAR     59  56  90 VRB2      30.07S
FULLERTON        N/A     61  55  81 CALM      30.05F
ALEXANDRIA INT CLEAR     63  59  87 SE7       30.07S
ESLER FIELD    MOCLDY    63  60  90 CALM      30.09S
DERIDDER         N/A     63  56  79 CALM      30.09S
OAKDALE        SUNNY     57  56  95 CALM      30.07F
OPELOUSAS        N/A    N/A N/A N/A SE5       30.08F
$$

ACROSS SOUTHWEST AND SOUTH CENTRAL LOUISIANA

CITY           SKY/WX    TMP DP  RH WIND       PRES   REMARKS
SULPHUR        SUNNY     65  64  96 E5        30.07S
LAKE CHARLES   CLEAR     63  60  90 CALM      30.06F
CHENNAULT INT  CLEAR     64  62  94 CALM      30.07S
CAMERON PHI    SUNNY     73  61  64 S14       30.08F
DEQUINCY         N/A     58  58 100 CALM      30.06F
JENNINGS         N/A     65  63  91 SE5       30.07F
LAFAYETTE      CLEAR     66  61  84 CALM      30.09S
NEW IBERIA     CLEAR     65  59  81 SE5       30.09F
ABBEVILLE        N/A     65  61  86 E6        30.08F
PATTERSON      CLEAR    N/A N/A N/A E3        30.10S
SALT POINT       N/A     65  61  87 E3        30.07F
$$

SELECTED SITES ACROSS THE REGION

CITY           SKY/WX    TMP DP  RH WIND       PRES   REMARKS
HOUSTON BUSH   PTCLDY    63  60  90 CALM      30.04S
HOUSTON HOBBY  PTCLDY    69  63  81 SE3       30.04S
GALVESTON      CLEAR     73  64  73 SE13      30.06R
COLLEGE STAT   CLEAR     66  61  84 S6        30.04S
CONROE         CLEAR     59  57  93 CALM      30.05S
HUNTSVILLE     CLEAR     67  59  75 S7        30.04F
LUFKIN         CLEAR     63  58  83 CALM      30.05S
SHREVEPORT     CLEAR     65  57  75 S6        30.05R
MONROE         CLEAR     67  59  75 S7        30.08F
NATCHEZ MS     CLEAR     63  55  77 SE8       30.11F
BATON ROUGE    CLEAR     62  58  86 E3        30.10F
N.O. INTL ARPT PTCLDY    64  56  75 CALM      30.10F
SLIDELL        CLEAR     58  57  97 CALM      30.10F
$$

MARINE REPORTS

STATION/POSITION TIME  TEMP    WIND        PRES    VSBY  WAVE
                       AIR SEA DIR/SP/G                  HT/PER
                 (UTC) (F)     (DEG/KT/KT) (MB)    (MI)  (FT/S)
BUOY 30 S HIGH I 0650   75 75  140/ 17/ 19 1016.6S         3/ 4
SEA RIM ST PARK  0700   73     150/ 13/ 15 1018.1F
PORT ARTHUR      0606      73  150/  6/ 10 1017.9S
SABINE PASS N    0600   73 74  170/  9/ 12 1017.9F
TEXAS POINT      NOT AVBL
CALCASIEU PASS   0600   75 76  160/ 14/ 15   N/A
LK CHARLES BEACH 0606   68 73              1018.4F
MARSH ISLAND     0600   75     150/ 13/ 16   N/A           0
FRESH WATER LOCK 0606   72 78  140/  9/ 11 1018.4F
AMERADA PASS     0618   67 69   90/  3/  5 1018.8F
$$


USA.gov is the U.S. government's official web portal to all federal, state and local government web resources and services.